Regional Weather Roundup
Issued by NWS

Home | Current Version | Previous Version | Graphics & Text | Print | Product List | Glossary On
Versions: 1 2 3 4 5 6 7 8 9 10 11 12 13 14 15 16 17 18 19 20 21 22 23 24 25 26 27 28 29 30 31 32 33 34 35 36 37 38 39 40 41 42
000
ASUS43 KDMX 020307
RWRIA

WEATHER ROUNDUP FOR IOWA
NATIONAL WEATHER SERVICE DES MOINES IA
1000 PM CDT WED OCT 01 2014

NOTE: "FAIR" INDICATES FEW OR NO CLOUDS BELOW 12,000 FEET WITH NO
SIGNIFICANT WEATHER AND/OR OBSTRUCTIONS TO VISIBILITY.

* - THESE STATIONS ARE NOT NWS STATIONS...THUS NOT UNDER NWS
QUALITY CONTROL.  THEY ALSO DO NOT REPORT WEATHER SUCH
AS PRECIPITATION OR FOG.

IAZ001>003-012>014-020>022-031>034-043>046-020400-
   NORTHWEST IOWA

CITY           SKY/WX    TMP DP  RH WIND       PRES   REMARKS
CARROLL *      CLEAR     61  61 100 SE5       29.81S FOG
DENISON *      CLEAR     63  63 100 E5        29.79S
LE MARS *      MOCLDY    59  57  94 CALM      29.81R
ORANGE CITY *  MOCLDY    66  54  63 N7        29.81R
SHELDON *      PTCLDY    57  55  94 CALM      29.80S
SIOUX CITY     CLEAR     62  60  93 CALM      29.80R
SPENCER        CLOUDY    63  59  87 NE6       29.81R
STORM LAKE *   CLEAR     61  59  94 SE6       29.81S
$$

IAZ055>058-069>071-079>083-090>094-020400-
   SOUTHWEST IOWA

CITY           SKY/WX    TMP DP  RH WIND       PRES   REMARKS
ATLANTIC *     CLOUDY    64  63  94 CALM      29.80R FOG
AUDUBON *      CLEAR     63  57  82 CALM      29.82S HAZE
CLARINDA *     CLEAR     66  66 100 CALM      29.79F
COUNCIL BLFS * CLEAR     66  66 100 E5        29.78S
CRESTON *      CLOUDY    63  63 100 E3        29.82R FOG
HARLAN  *      CLEAR     63  63 100 CALM      29.83S
LAMONI         CLOUDY    65  64  97 SE3       29.80S FOG
RED OAK *      PTCLDY    66  64  94 CALM      29.79S
SHENANDOAH *   CLEAR     68  66  94 VRB3      29.78F
$$

IAZ047>049-059>061-072>074-084-020400-
   CENTRAL IOWA

CITY           SKY/WX    TMP DP  RH WIND       PRES   REMARKS
AMES           FOG       61  61 100 SE3       29.81S VSB 3/4
ANKENY *       FOG       61  61 100 CALM      29.81S VSB 1/4
CHARITON *     FOG       63  63 100 CALM      29.81S VSB 1
DES MOINES     PTCLDY    66  63  90 SE3       29.81R FOG
GRINNELL*      PTCLDY    63  61  94 E3        29.83S FOG
KNOXVILLE *    PTCLDY    64  63  94 CALM      29.80F FOG
MARSHALLTOWN   CLOUDY    65  63  93 SE3       29.82S
PELLA *        CLOUDY    64  64 100 SE5       29.83S FOG
PERRY *          N/A     61  61 100 CALM      29.81F FOG
$$

IAZ004>006-015-016-023>025-035-036-020400-
   NORTH CENTRAL IOWA

CITY           SKY/WX    TMP DP  RH WIND       PRES   REMARKS
ALGONA *       CLEAR     63  63 100 S9        29.82R
CLARION *      CLEAR     61  61 100 SE6       29.83R
ESTHERVILLE    TSTM      62  59  90 NE5       29.81S
FORT DODGE *   CLEAR     61  57  88 SE3       29.82S
MASON CITY     CLEAR     55  55 100 SE6       29.84R FOG
FOREST CITY *  FOG       55  55 100 CALM      29.83R VSB 1/2
IOWA FALLS *   CLOUDY    63  61  94 SE3       29.84S
$$

IAZ007>011-017>019-026>030-037>042-050>054-066-020400-
   NORTHEAST IOWA

CITY           SKY/WX    TMP DP  RH WIND       PRES   REMARKS
CEDAR RAPIDS   CLOUDY    64  64 100 S8        29.84R FOG
CHARLES CITY * CLOUDY    63  61  94 E3        29.84S
CLINTON *      MOCLDY    61  57  88 SE5       29.88S
DECORAH *      CLOUDY    64  61  88 VRB5      29.83S
MONTICELLO *   CLOUDY    66  61  82 SE6       29.85R
OELWEIN *      CLOUDY    64  61  88 CALM      29.84S
WATERLOO       CLOUDY    66  61  84 S5        29.82S
$$

IAZ064-065-067-068-078-020400-
   EAST CENTRAL IOWA

CITY           SKY/WX    TMP DP  RH WIND       PRES   REMARKS
IOWA CITY      CLOUDY    66  64  93 S5        29.86R
MT. PLEASANT * CLOUDY    63  61  94 N5        29.83F FOG
MUSCATINE *    CLOUDY    63  61  94 CALM      29.84S
QUAD CITIES    CLOUDY    62  59  90 CALM      29.85R
$$

IAZ062-063-075>077-085>089-095>099-020400-
   SOUTHEAST IOWA

CITY           SKY/WX    TMP DP  RH WIND       PRES   REMARKS
BURLINGTON     LGT RAIN  67  64  90 SE7       29.82S
FAIRFIELD *    CLOUDY    64  63  94 CALM      29.83F
FORT MADISON * PTCLDY    68  64  88 SE5       29.83S
KEOKUK *       PTCLDY    66  64  94 SE5       29.82R
OSKALOOSA *    CLOUDY    66  64  94 CALM      29.82F
CENTERVILLE *  PTCLDY    64  64 100 CALM      29.83S
OTTUMWA        CLOUDY    66  63  90 E5        29.81F
WASHINGTON *   CLOUDY    66  64  94 CALM      29.83F
$$

ABBREVIATIONS USED IN REMARKS
   TC - TEMPERATURES IN CELSIUS
  WCI - WIND CHILL INDEX
   HX - HEAT INDEX
  VSB - VISIBILITY
$$




USA.gov is the U.S. government's official web portal to all federal, state and local government web resources and services.